TimeCST,TemperatureF,Dew PointF,Humidity,Sea Level PressureIn,VisibilityMPH,Wind Direction,Wind SpeedMPH,Gust SpeedMPH,PrecipitationIn,Events,Conditions,WindDirDegrees,DateUTC
12:55 AM,30.2,21.2,69,30.24,10.0,Calm,Calm,-,N/A,,Overcast,0,2013-02-17 06:55:00
1:55 AM,30.2,24.8,80,30.23,10.0,Calm,Calm,-,N/A,,Overcast,0,2013-02-17 07:55:00
2:15 AM,30.2,23.0,75,30.23,10.0,Calm,Calm,-,N/A,,Overcast,0,2013-02-17 08:15:00
2:35 AM,30.2,21.2,69,30.23,10.0,Calm,Calm,-,N/A,,Overcast,0,2013-02-17 08:35:00
2:55 AM,30.2,23.0,75,30.23,10.0,Calm,Calm,-,N/A,,Overcast,0,2013-02-17 08:55:00
3:15 AM,30.2,24.8,80,30.23,10.0,Calm,Calm,-,N/A,,Overcast,0,2013-02-17 09:15:00
3:35 AM,30.2,24.8,80,30.23,10.0,Calm,Calm,-,N/A,,Overcast,0,2013-02-17 09:35:00
3:55 AM,30.2,24.8,80,30.22,10.0,Calm,Calm,-,N/A,,Overcast,0,2013-02-17 09:55:00
4:15 AM,32.0,23.0,69,30.22,10.0,Calm,Calm,-,N/A,,Overcast,0,2013-02-17 10:15:00
4:35 AM,32.0,23.0,69,30.23,10.0,Calm,Calm,-,N/A,,Overcast,0,2013-02-17 10:35:00
4:55 AM,32.0,23.0,69,30.23,10.0,Calm,Calm,-,N/A,,Overcast,0,2013-02-17 10:55:00
5:55 AM,33.8,21.2,60,30.24,10.0,SSE,3.5,-,N/A,,Overcast,150,2013-02-17 11:55:00
6:55 AM,33.8,23.0,65,30.23,10.0,SE,4.6,-,N/A,,Overcast,130,2013-02-17 12:55:00
7:55 AM,33.8,23.0,65,30.25,10.0,SSE,4.6,-,N/A,,Overcast,150,2013-02-17 13:55:00
8:55 AM,35.6,21.2,56,30.26,10.0,South,8.1,-,N/A,,Overcast,170,2013-02-17 14:55:00
9:55 AM,41.0,21.2,45,30.26,10.0,South,8.1,-,N/A,,Mostly Cloudy,170,2013-02-17 15:55:00
10:55 AM,44.6,21.2,39,30.25,10.0,South,9.2,-,N/A,,Scattered Clouds,170,2013-02-17 16:55:00
11:55 AM,48.2,21.2,34,30.21,10.0,Variable,6.9,-,N/A,,Partly Cloudy,0,2013-02-17 17:55:00
12:55 PM,51.8,23.0,33,30.18,10.0,South,9.2,-,N/A,,Clear,180,2013-02-17 18:55:00
1:55 PM,53.6,24.8,33,30.14,10.0,South,9.2,-,N/A,,Clear,180,2013-02-17 19:55:00
2:55 PM,55.4,26.6,33,30.12,10.0,South,8.1,-,N/A,,Clear,180,2013-02-17 20:55:00
3:55 PM,55.4,26.6,33,30.10,10.0,SSE,8.1,-,N/A,,Clear,150,2013-02-17 21:55:00
4:55 PM,53.6,26.6,35,30.09,10.0,SSE,6.9,-,N/A,,Clear,160,2013-02-17 22:55:00
5:55 PM,51.8,28.4,41,30.10,10.0,SSE,6.9,-,N/A,,Partly Cloudy,160,2013-02-17 23:55:00
6:55 PM,48.2,28.4,46,30.10,10.0,SE,3.5,-,N/A,,Clear,140,2013-02-18 00:55:00
7:55 PM,46.4,28.4,50,30.10,10.0,SE,6.9,-,N/A,,Clear,130,2013-02-18 01:55:00
8:55 PM,46.4,28.4,50,30.10,10.0,SE,8.1,-,N/A,,Clear,130,2013-02-18 02:55:00
9:55 PM,46.4,28.4,50,30.09,10.0,SE,6.9,-,N/A,,Clear,140,2013-02-18 03:55:00
10:55 PM,48.2,30.2,50,30.08,10.0,SSE,11.5,-,N/A,,Clear,150,2013-02-18 04:55:00
11:55 PM,46.4,30.2,53,30.07,10.0,SSE,9.2,-,N/A,,Clear,150,2013-02-18 05:55:00